SDM601 ENGM-ENBR

Flight info

Callsign SDM601
Flight time N/A
Altitude 28000
Route ATLAP DCT AGEKU DCT PESUR
Aircraft A320/M-SDE3FGHIRWY/LB1

Departure

Time 2026-05-05 08:16
Airport Oslo-Gardermoen International Airport (ENGM)

Arrival

Time N/A
Airport Bergen Airport, Flesland (ENBR)
Time Latitude Longitude Altitude Speed Heading
2026-05-05 07:48 60.19563 11.09426 678 ft 0 kts 197°
2026-05-05 08:07 60.19569 11.09429 681 ft 2 kts 196°
2026-05-05 08:07 60.19584 11.09439 681 ft 2 kts 198°
2026-05-05 08:08 60.19591 11.09443 681 ft 2 kts 200°
2026-05-05 08:08 60.19607 11.09454 679 ft 2 kts 201°
2026-05-05 08:08 60.19622 11.09466 681 ft 2 kts 204°
2026-05-05 08:08 60.19637 11.09480 677 ft 2 kts 210°
2026-05-05 08:09 60.19650 11.09498 678 ft 2 kts 221°
2026-05-05 08:09 60.19661 11.09522 678 ft 2 kts 261°
2026-05-05 08:09 60.19662 11.09546 677 ft 1 kts 285°
2026-05-05 08:09 60.19662 11.09547 681 ft 0 kts 285°
2026-05-05 08:10 60.19663 11.09536 681 ft 5 kts 285°
2026-05-05 08:10 60.19689 11.09344 681 ft 17 kts 285°
2026-05-05 08:10 60.19723 11.09103 680 ft 19 kts 285°
2026-05-05 08:11 60.19764 11.08824 677 ft 22 kts 287°
2026-05-05 08:11 60.19716 11.08639 678 ft 17 kts 199°
2026-05-05 08:11 60.19604 11.08579 678 ft 17 kts 195°
2026-05-05 08:11 60.19503 11.08519 680 ft 13 kts 196°
2026-05-05 08:12 60.19420 11.08470 680 ft 12 kts 195°
2026-05-05 08:12 60.19346 11.08429 680 ft 10 kts 195°
2026-05-05 08:12 60.19280 11.08390 680 ft 9 kts 197°
2026-05-05 08:12 60.19222 11.08354 678 ft 8 kts 197°
2026-05-05 08:13 60.19170 11.08325 679 ft 7 kts 195°
2026-05-05 08:13 60.19122 11.08298 679 ft 7 kts 196°
2026-05-05 08:13 60.19077 11.08271 678 ft 6 kts 196°
2026-05-05 08:13 60.19038 11.08248 678 ft 5 kts 196°
2026-05-05 08:14 60.18971 11.08210 675 ft 16 kts 195°
2026-05-05 08:14 60.18855 11.08142 670 ft 19 kts 196°
2026-05-05 08:14 60.18719 11.08063 668 ft 22 kts 196°
2026-05-05 08:14 60.18568 11.07970 666 ft 21 kts 197°
2026-05-05 08:15 60.18552 11.07776 664 ft 17 kts 285°
2026-05-05 08:15 60.18588 11.07553 663 ft 18 kts 296°
2026-05-05 08:15 60.18695 11.07487 663 ft 19 kts 16°
2026-05-05 08:15 60.18966 11.07641 669 ft 73 kts 15°
2026-05-05 08:16 60.19665 11.08043 672 ft 133 kts 16°
2026-05-05 08:16 60.20679 11.08637 934 ft 156 kts 15°
2026-05-05 08:16 60.21366 11.09069 1392 ft 156 kts 15°
2026-05-05 08:16 60.22429 11.09718 2043 ft 162 kts 12°
2026-05-05 08:17 60.23535 11.10341 2620 ft 170 kts 12°
2026-05-05 08:17 60.24756 11.11010 2941 ft 193 kts 13°
2026-05-05 08:17 60.26159 11.11384 3236 ft 215 kts 352°
2026-05-05 08:17 60.27723 11.10907 3660 ft 239 kts 349°
2026-05-05 08:18 60.29394 11.10138 4319 ft 250 kts 332°
2026-05-05 08:18 60.30633 11.07761 5265 ft 250 kts 296°
2026-05-05 08:18 60.30896 11.04333 6258 ft 255 kts 263°
2026-05-05 08:18 60.30490 11.00796 7074 ft 261 kts 262°
2026-05-05 08:19 60.30476 10.97191 7968 ft 261 kts 280°
2026-05-05 08:19 60.30881 10.93601 8858 ft 264 kts 284°
2026-05-05 08:19 60.31314 10.89972 9778 ft 266 kts 284°
2026-05-05 08:19 60.31644 10.86221 10331 ft 282 kts 270°
2026-05-05 08:20 60.31255 10.82184 10575 ft 308 kts 250°
2026-05-05 08:20 60.30153 10.78315 10928 ft 328 kts 233°
2026-05-05 08:20 60.28482 10.75078 11605 ft 338 kts 218°
2026-05-05 08:20 60.26486 10.72488 12386 ft 343 kts 216°
2026-05-05 08:21 60.24454 10.69921 13178 ft 345 kts 216°
2026-05-05 08:21 60.22410 10.67351 13922 ft 348 kts 216°
2026-05-05 08:21 60.20357 10.64741 14655 ft 347 kts 220°
2026-05-05 08:21 60.18600 10.61594 15400 ft 339 kts 234°
2026-05-05 08:22 60.17286 10.57720 16196 ft 332 kts 247°
2026-05-05 08:22 60.16484 10.53425 17028 ft 326 kts 259°
2026-05-05 08:22 60.16194 10.48937 17866 ft 323 kts 268°
2026-05-05 08:22 60.16112 10.44446 18614 ft 321 kts 268°
2026-05-05 08:23 60.16021 10.39976 19317 ft 319 kts 267°
2026-05-05 08:23 60.15926 10.35519 20024 ft 318 kts 267°
2026-05-05 08:23 60.15829 10.31144 20707 ft 317 kts 266°
2026-05-05 08:23 60.15731 10.26723 21370 ft 316 kts 266°
2026-05-05 08:24 60.15634 10.22317 21995 ft 316 kts 266°
2026-05-05 08:24 60.15536 10.17903 22617 ft 315 kts 265°
2026-05-05 08:24 60.15435 10.13505 23197 ft 315 kts 265°
2026-05-05 08:24 60.15331 10.09087 23699 ft 316 kts 265°
2026-05-05 08:25 60.15225 10.04667 24087 ft 318 kts 265°
2026-05-05 08:25 60.15115 10.00213 24488 ft 320 kts 266°
2026-05-05 08:25 60.15004 9.95779 24811 ft 323 kts 266°
2026-05-05 08:25 60.14889 9.91270 25201 ft 324 kts 266°
2026-05-05 08:26 60.14772 9.86735 25553 ft 326 kts 266°
2026-05-05 08:26 60.14655 9.82165 25898 ft 329 kts 266°
2026-05-05 08:26 60.14706 9.77553 26235 ft 333 kts 272°
2026-05-05 08:26 60.14908 9.72900 26562 ft 336 kts 272°
2026-05-05 08:27 60.15107 9.68211 26876 ft 338 kts 272°
2026-05-05 08:27 60.15304 9.63492 27189 ft 340 kts 272°
2026-05-05 08:27 60.15498 9.58725 27473 ft 343 kts 272°
2026-05-05 08:27 60.15692 9.53939 27742 ft 345 kts 272°
2026-05-05 08:28 60.15886 9.49167 27863 ft 346 kts 272°
2026-05-05 08:28 60.16079 9.44363 27881 ft 344 kts 272°
2026-05-05 08:28 60.16270 9.39573 27881 ft 344 kts 272°
2026-05-05 08:28 60.16460 9.34780 27915 ft 344 kts 272°
2026-05-05 08:29 60.16646 9.29988 27893 ft 344 kts 272°
2026-05-05 08:29 60.16830 9.25185 27891 ft 344 kts 272°
2026-05-05 08:29 60.17013 9.20441 27891 ft 344 kts 272°
2026-05-05 08:30 60.17375 9.10851 27891 ft 344 kts 272°
2026-05-05 08:30 60.17550 9.06052 27901 ft 344 kts 272°
2026-05-05 08:30 60.17724 9.01244 27903 ft 345 kts 272°
2026-05-05 08:30 60.17898 8.96452 27896 ft 344 kts 272°
2026-05-05 08:31 60.18069 8.91712 27897 ft 344 kts 272°
2026-05-05 08:31 60.18240 8.86915 27895 ft 344 kts 272°
2026-05-05 08:31 60.18409 8.82109 27919 ft 344 kts 272°
2026-05-05 08:31 60.18576 8.77302 27919 ft 344 kts 272°
2026-05-05 08:32 60.18738 8.72564 27920 ft 344 kts 271°
2026-05-05 08:32 60.18900 8.67764 27903 ft 344 kts 272°
2026-05-05 08:32 60.19062 8.62952 27902 ft 345 kts 272°
2026-05-05 08:32 60.19221 8.58136 27903 ft 345 kts 272°
2026-05-05 08:33 60.19380 8.53320 27926 ft 346 kts 272°
2026-05-05 08:33 60.19538 8.48492 27928 ft 346 kts 272°
2026-05-05 08:33 60.19697 8.43651 27929 ft 346 kts 272°
2026-05-05 08:33 60.19848 8.38868 27930 ft 347 kts 272°
2026-05-05 08:34 60.19999 8.34031 27934 ft 347 kts 272°
2026-05-05 08:34 60.20150 8.29185 27886 ft 347 kts 272°
2026-05-05 08:34 60.20302 8.24343 27954 ft 349 kts 272°
2026-05-05 08:34 60.20452 8.19465 27963 ft 349 kts 272°
2026-05-05 08:35 60.20600 8.14591 27964 ft 349 kts 272°
2026-05-05 08:35 60.20745 8.09701 27966 ft 348 kts 272°
2026-05-05 08:35 60.20887 8.04846 27966 ft 348 kts 271°
2026-05-05 08:35 60.21025 7.99982 27977 ft 348 kts 272°
2026-05-05 08:36 60.21162 7.95188 27969 ft 348 kts 272°
2026-05-05 08:36 60.21299 7.90325 27962 ft 348 kts 272°
2026-05-05 08:36 60.21432 7.85458 27956 ft 348 kts 272°
2026-05-05 08:36 60.21564 7.80597 27954 ft 348 kts 272°
2026-05-05 08:37 60.21698 7.75734 27951 ft 348 kts 272°
2026-05-05 08:37 60.21830 7.70849 27951 ft 349 kts 272°
2026-05-05 08:37 60.21958 7.65970 27950 ft 349 kts 272°
2026-05-05 08:37 60.22086 7.61085 27955 ft 349 kts 272°
2026-05-05 08:38 60.22212 7.56204 27950 ft 349 kts 272°
2026-05-05 08:38 60.22337 7.51330 27950 ft 349 kts 272°
2026-05-05 08:38 60.22458 7.46509 27946 ft 349 kts 272°
2026-05-05 08:38 60.22578 7.41602 27947 ft 350 kts 271°
2026-05-05 08:39 60.22693 7.36702 27948 ft 351 kts 271°
2026-05-05 08:39 60.22807 7.31787 27973 ft 351 kts 272°
2026-05-05 08:39 60.22922 7.26872 27967 ft 351 kts 272°
2026-05-05 08:39 60.23037 7.21955 27957 ft 351 kts 272°
2026-05-05 08:40 60.23148 7.17047 27948 ft 351 kts 272°
2026-05-05 08:40 60.23257 7.12139 27946 ft 351 kts 272°
2026-05-05 08:40 60.23362 7.07294 27946 ft 351 kts 272°
2026-05-05 08:40 60.23465 7.02383 27943 ft 350 kts 272°
2026-05-05 08:41 60.23567 6.97473 27950 ft 351 kts 272°
2026-05-05 08:41 60.23668 6.92558 27941 ft 351 kts 272°
2026-05-05 08:41 60.23768 6.87642 27943 ft 351 kts 272°
2026-05-05 08:41 60.23868 6.82730 27941 ft 351 kts 272°
2026-05-05 08:42 60.23967 6.77802 27938 ft 351 kts 272°
2026-05-05 08:42 60.24062 6.72959 27941 ft 347 kts 271°
2026-05-05 08:42 60.24150 6.68234 27972 ft 328 kts 272°
2026-05-05 08:42 60.24231 6.63751 27956 ft 312 kts 272°
2026-05-05 08:43 60.24310 6.59486 27942 ft 296 kts 272°
2026-05-05 08:43 60.24636 6.55503 27941 ft 283 kts 287°
2026-05-05 08:43 60.25664 6.52188 27940 ft 279 kts 304°
2026-05-05 08:43 60.27247 6.49882 27943 ft 287 kts 322°
2026-05-05 08:44 60.29234 6.48907 27947 ft 314 kts 343°
2026-05-05 08:44 60.31506 6.49751 28002 ft 355 kts 11°
2026-05-05 08:44 60.33590 6.52800 27939 ft 389 kts 40°
2026-05-05 08:44 60.34988 6.57674 27950 ft 414 kts 68°
2026-05-05 08:45 60.35460 6.63464 27951 ft 422 kts 89°
2026-05-05 08:45 60.35245 6.69386 27950 ft 424 kts 101°
2026-05-05 08:45 60.34702 6.75230 27949 ft 422 kts 107°
2026-05-05 08:45 60.33607 6.80613 27954 ft 405 kts 135°
2026-05-05 08:46 60.31702 6.84451 27954 ft 372 kts 163°
2026-05-05 08:46 60.29427 6.86153 27940 ft 330 kts 192°
2026-05-05 08:46 60.27308 6.85661 27887 ft 289 kts 217°
2026-05-05 08:46 60.25666 6.83773 27950 ft 265 kts 234°
2026-05-05 08:47 60.24520 6.81056 27947 ft 248 kts 249°
2026-05-05 08:47 60.23911 6.77889 27948 ft 240 kts 263°
2026-05-05 08:47 60.23787 6.74552 27953 ft 239 kts 270°
2026-05-05 08:47 60.23846 6.71196 27951 ft 239 kts 272°
2026-05-05 08:48 60.23960 6.67850 27973 ft 240 kts 273°
2026-05-05 08:48 60.24087 6.64507 27961 ft 238 kts 274°
2026-05-05 08:48 60.24209 6.61179 27953 ft 237 kts 273°
2026-05-05 08:48 60.24346 6.57887 27946 ft 236 kts 278°
2026-05-05 08:49 60.25024 6.54850 27929 ft 247 kts 301°
2026-05-05 08:49 60.26470 6.52781 27936 ft 281 kts 327°
2026-05-05 08:49 60.28567 6.52450 27949 ft 330 kts 355°
2026-05-05 08:49 60.30815 6.54352 28030 ft 373 kts 24°
2026-05-05 08:50 60.32645 6.58338 27933 ft 401 kts 54°
2026-05-05 08:50 60.33575 6.63745 27946 ft 418 kts 82°
2026-05-05 08:50 60.33419 6.69527 27958 ft 418 kts 110°
2026-05-05 08:50 60.32199 6.74691 27951 ft 399 kts 139°
2026-05-05 08:51 60.30201 6.78221 27947 ft 367 kts 168°
2026-05-05 08:51 60.27910 6.79557 27857 ft 322 kts 198°
2026-05-05 08:51 60.25902 6.78691 27924 ft 276 kts 225°
2026-05-05 08:51 60.24580 6.76263 27929 ft 247 kts 247°
2026-05-05 08:52 60.23973 6.73168 27925 ft 235 kts 266°
2026-05-05 08:52 60.23960 6.69897 27925 ft 234 kts 272°
2026-05-05 08:52 60.24046 6.66620 27950 ft 235 kts 273°
2026-05-05 08:52 60.24150 6.63344 27950 ft 237 kts 273°
2026-05-05 08:53 60.24259 6.60037 27947 ft 236 kts 273°
2026-05-05 08:53 60.24495 6.56766 27937 ft 238 kts 286°
2026-05-05 08:53 60.25453 6.53974 27925 ft 255 kts 309°
2026-05-05 08:53 60.27162 6.52459 27951 ft 298 kts 337°
2026-05-05 08:54 60.29370 6.52921 27949 ft 346 kts
2026-05-05 08:54 60.31528 6.55620 27975 ft 385 kts 34°
2026-05-05 08:54 60.33064 6.60213 27936 ft 408 kts 64°
2026-05-05 08:54 60.33607 6.65928 27958 ft 420 kts 92°
2026-05-05 08:55 60.33028 6.71647 27945 ft 412 kts 121°
2026-05-05 08:55 60.31463 6.76263 27963 ft 388 kts 150°
2026-05-05 08:55 60.29317 6.78963 27958 ft 351 kts 178°
2026-05-05 08:55 60.27064 6.79432 27912 ft 302 kts 208°
2026-05-05 08:56 60.25293 6.77867 27928 ft 261 kts 235°
2026-05-05 08:56 60.24261 6.75093 27929 ft 241 kts 255°
2026-05-05 08:56 60.23932 6.71856 27749 ft 236 kts 271°
2026-05-05 08:56 60.24007 6.68552 27498 ft 235 kts 272°
2026-05-05 08:57 60.24104 6.65318 27259 ft 233 kts 273°
2026-05-05 08:57 60.24205 6.62073 26981 ft 231 kts 273°
2026-05-05 08:57 60.24325 6.58784 26634 ft 239 kts 277°
2026-05-05 08:57 60.24788 6.55492 25588 ft 251 kts 287°
2026-05-05 08:58 60.25545 6.52260 24474 ft 259 kts 290°
2026-05-05 08:58 60.26414 6.49006 23344 ft 268 kts 291°
2026-05-05 08:58 60.27006 6.46826 22451 ft 274 kts 292°
2026-05-05 08:58 60.27919 6.43410 21121 ft 285 kts 292°
2026-05-05 08:59 60.29165 6.38582 19335 ft 299 kts 294°
2026-05-05 08:59 60.30121 6.34767 17960 ft 310 kts 294°
2026-05-05 08:59 60.30782 6.32098 16888 ft 317 kts 294°
2026-05-05 08:59 60.31779 6.28036 15353 ft 328 kts 295°
2026-05-05 09:00 60.32787 6.23892 14005 ft 335 kts 295°
2026-05-05 09:00 60.33806 6.19673 13607 ft 322 kts 294°
2026-05-05 09:00 60.34755 6.15731 13338 ft 312 kts 294°
2026-05-05 09:00 60.35698 6.11815 12886 ft 308 kts 294°
2026-05-05 09:01 60.36663 6.07805 12057 ft 323 kts 294°
2026-05-05 09:01 60.37630 6.03770 11794 ft 313 kts 294°
2026-05-05 09:01 60.38557 5.99896 11646 ft 299 kts 294°
2026-05-05 09:01 60.39446 5.96181 11516 ft 287 kts 294°
2026-05-05 09:02 60.40296 5.92626 11386 ft 276 kts 294°
2026-05-05 09:02 60.41112 5.89210 11134 ft 270 kts 294°
2026-05-05 09:02 60.41925 5.85798 10783 ft 268 kts 294°
2026-05-05 09:02 60.42735 5.82395 10431 ft 267 kts 294°
2026-05-05 09:03 60.43536 5.79018 10033 ft 265 kts 294°
2026-05-05 09:03 60.44331 5.75645 9624 ft 265 kts 294°
2026-05-05 09:03 60.45116 5.72308 9204 ft 264 kts 294°
2026-05-05 09:03 60.45883 5.69053 9009 ft 250 kts 294°
2026-05-05 09:04 60.46609 5.65983 8752 ft 233 kts 295°
2026-05-05 09:04 60.47528 5.63334 8151 ft 232 kts 316°
2026-05-05 09:04 60.48908 5.61695 7921 ft 229 kts 339°
2026-05-05 09:04 60.50513 5.61248 7875 ft 237 kts 357°
2026-05-05 09:05 60.52172 5.61293 7770 ft 238 kts 357°
2026-05-05 09:05 60.53787 5.61042 7641 ft 234 kts 343°
2026-05-05 09:05 60.55329 5.60044 7506 ft 232 kts 336°
2026-05-05 09:05 60.56854 5.58954 7374 ft 232 kts 337°
2026-05-05 09:06 60.58370 5.57854 7246 ft 230 kts 333°
2026-05-05 09:06 60.59730 5.56204 7109 ft 226 kts 317°
2026-05-05 09:06 60.60941 5.54167 7034 ft 226 kts 317°
2026-05-05 09:06 60.62159 5.52131 6899 ft 226 kts 318°
2026-05-05 09:07 60.63238 5.49898 6765 ft 222 kts 300°
2026-05-05 09:07 60.63735 5.46965 6632 ft 220 kts 274°
2026-05-05 09:07 60.63500 5.43909 6500 ft 221 kts 247°
2026-05-05 09:07 60.62582 5.41415 6378 ft 226 kts 221°
2026-05-05 09:08 60.61221 5.39746 6251 ft 230 kts 212°
2026-05-05 09:08 60.59823 5.38177 6113 ft 229 kts 212°
2026-05-05 09:08 60.58421 5.36605 5975 ft 229 kts 212°